COSMOS 595

Satellite information

Favourite Embed

Satellite Type and Status

PAYLOADIN ORBIT

Key statistics

Satellite COSMOS 595 at a glance.

Uptime

18851

Days in orbit

Revolutions

≈ 12.6

Per day

Orbit

LEO

Low Earth Orbit

Inclination

74.0

Latest

Satellite identification and parameters

Extended collection of information and parameters for COSMOS 595.

Object identification

Identified? True

Debris? False

Object name: COSMOS 595

International designator: 1973-069H

Object number (NORAD): 6852

Object ID (CCSDS): 6852

Country: COMMONWEALTH OF INDEPENDENT STATES (CIS)

Current information (Y/N): Y

RCS size: MEDIUM

Orbital parameters

Period: 114.697 minutes

Inclination: 74.001 deg

SMA: 7819.797 km

Apoapsis: 1485.268 km

Periapsis: 1398.057 km

RAAN: 202.8442 deg

Eccentricy: 0.0055763

Argument of periapsis: 354.4542 deg

Mean anomaly: 122.6728 deg

Mean motion: 12.55479194 rev/day

Mean motion (dot): 0.00000003 rev/day2

B* drag term: 0.00011606 1/REarth

Two-line elements (TLE)

Creation date: May 12, 2025, 2:31 a.m.

Reference frame: TEME

Reference center: EARTH

Epoch: May 11, 2025, 4:36 p.m. UTC

TLE line 0: 0 COSMOS 595

TLE line 1: 1 06852U 73069H 25131.69225541 .00000003 00000-0 11606-3 0 9992

TLE line 2: 2 06852 74.0010 202.8442 0055763 354.4542 122.6728 12.55479194365144

Live tracking on map

Real-time ground track for satellite COSMOS 595.

In-orbit conjunctions

There are no conjunctions computed for COSMOS 595, at the moment. Check back to stay up to date, as we update our databases every day.

Go to all conjunctions

Associated space launch

Military communications satellites

COSMOS 595 was lifted into orbit during the mission ‘Kosmos-3M | Strela-1M 49-56’, on board a Kosmos-3M space rocket.

The launch took place on Oct. 2, 1973, 9:46 p.m. from 132/2.

For more information about the launch, click the button.

Launch to space Kosmos-3M | Strela-1M 49-56
Kosmos-3M | Strela-1M 49-56

Agency: N/A

Status: Launch Successful

Launch date: Oct. 2, 1973, 9:46 p.m. UTC

Rocket: Kosmos-3M

Launch pad: 132/2

Location: Plesetsk Cosmodrome, Russian Federation

...

Latest news about this satellite

There are no fresh news available about this satellite. Check back as we update our databases every day.


Newsletter sign-up

Weekly statistics, charts and insights to help you stay on top of the space industry.